Theta_e
299 300 302 301 301 301 294 292 291 294 290 295 304 305 313 316 318 316 319 322 324 325 329 332 335 338 344 349 351 353 351 351 350 351 352 350 349 349 348 348 347 347 346 346
296 302 302 301 302 302 299 297 296 294 295 306 313 307 311 313 317 316 319 322 324 329 330 333 336 338 342 345 347 349 347 348 347 347 347 347 347 347 346 346 346 346 345 345
293 298 300 297 299 303 302 302 298 297 302 310 312 315 317 312 318 317 321 325 326 329 331 334 337 340 341 343 344 346 345 345 347 347 346 346 346 345 345 345 344 343 344 344
293 295 289 298 305 307 305 308 308 308 309 311 313 318 320 321 314 321 324 325 325 326 332 337 339 340 341 344 345 344 344 345 347 346 346 345 345 345 344 344 345 345 345 346
292 290 295 301 305 306 303 303 309 307 310 312 315 317 311 318 318 318 323 322 323 324 334 342 343 344 344 345 346 344 343 346 347 346 345 344 344 344 344 344 344 345 346 346
294 291 290 299 308 312 309 299 309 310 310 311 316 304 309 319 326 329 330 327 326 330 340 346 345 347 346 345 347 346 345 348 349 348 347 345 345 344 344 345 345 347 347 347
294 293 298 306 311 311 297 299 309 312 311 313 311 314 319 327 328 330 332 339 344 343 345 347 349 350 347 347 346 349 350 350 351 349 349 349 348 346 345 346 346 346 345 345
294 292 292 312 310 303 306 310 311 312 313 314 317 321 324 326 328 333 340 341 345 345 346 349 351 351 349 348 349 349 349 348 348 348 349 348 347 346 346 346 343 343 341 339
300 299 305 310 310 313 312 311 313 313 316 318 319 321 323 326 329 336 338 338 341 343 343 344 349 351 347 344 349 352 350 348 347 348 348 348 347 345 345 344 339 337 334 334
303 305 309 311 313 315 315 315 318 319 319 321 319 324 324 326 323 324 325 325 326 334 340 340 342 344 343 345 347 350 348 347 347 347 345 346 344 344 339 339 337 336 331 331
302 306 309 312 314 316 319 320 321 322 323 323 323 324 324 322 322 324 326 325 326 326 335 335 337 337 340 342 343 341 340 339 338 340 341 338 335 335 336 333 333 333 332 333
301 307 307 309 316 320 319 320 323 322 320 321 325 324 325 322 324 324 325 327 325 324 335 335 332 332 332 335 336 335 334 335 333 332 330 330 329 329 310 312 308 306 306 319
308 312 313 315 319 322 320 323 324 323 325 324 323 323 326 322 324 323 327 326 324 324 334 333 331 330 331 332 333 332 331 331 331 330 329 328 328 331 326 318 306 305 305 306
315 314 313 318 317 325 326 325 325 326 326 327 323 322 322 320 321 323 323 326 326 326 332 333 331 330 332 331 331 327 327 318 329 329 330 330 336 331 327 325 323 326 306 306
313 316 317 319 321 322 326 326 325 325 324 324 327 324 323 320 320 324 327 327 328 329 330 328 328 328 330 332 331 329 330 330 330 329 328 326 327 331 330 325 326 323 321 311
313 316 319 319 319 320 322 323 323 325 325 326 325 326 324 326 325 328 331 329 327 326 326 325 324 327 329 331 330 331 330 326 328 328 326 329 330 332 330 329 326 321 321 317
311 310 313 315 316 318 320 321 323 325 326 328 328 325 326 325 329 328 327 326 325 324 324 324 325 326 328 328 330 327 329 328 328 327 328 326 324 326 325 324 327 322 319 313
318 318 318 316 317 319 319 321 323 324 325 324 330 330 328 327 326 325 324 324 322 321 321 322 325 325 327 328 330 328 327 325 326 325 324 326 326 327 323 326 327 325 320 312
322 322 322 323 322 321 322 319 321 323 324 325 327 326 327 326 324 324 323 320 318 317 318 322 327 325 324 326 327 326 328 327 325 323 324 318 322 323 322 323 325 326 322 316
321 322 323 323 323 322 322 322 319 320 323 320 321 322 323 323 321 322 323 319 318 318 322 324 323 321 323 324 325 326 326 324 323 323 326 324 322 321 320 313 320 322 319 317
317 318 319 319 319 321 322 322 320 318 318 319 319 320 322 322 321 321 318 318 320 322 321 316 317 318 316 316 316 321 324 324 323 324 327 325 323 320 320 319 320 320 320 321
315 314 315 317 317 319 321 321 321 319 317 318 319 320 318 318 320 319 319 321 320 318 320 313 311 315 314 319 312 314 313 313 315 312 313 313 314 312 311 316 317 312 311 312
313 313 313 315 318 317 318 319 320 318 316 317 320 319 319 321 321 319 317 319 320 318 314 311 315 317 317 314 314 314 316 314 311 310 310 310 310 310 311 310 311 310 311 311
311 312 314 318 315 314 315 319 315 316 316 318 322 320 321 318 316 320 321 316 312 313 312 312 315 315 314 312 311 311 311 311 311 313 312 307 311 311 310 309 307 307 307 306
312 311 313 314 313 312 319 322 318 318 319 320 321 322 322 320 320 318 320 313 309 311 311 311 314 315 315 314 313 312 311 310 310 310 311 310 308 306 305 304 303 303 302 302
311 311 313 313 312 313 321 320 316 316 319 320 322 323 321 317 314 311 310 312 311 309 308 307 312 314 315 315 314 312 310 309 310 309 306 305 303 302 302 301 300 299 298 297
311 307 312 312 310 312 320 319 316 315 317 318 318 318 318 315 312 309 308 310 310 310 308 308 312 312 313 312 309 307 304 303 301 303 302 303 302 301 299 299 298 297 295 294
Wind_Speed
3 4 3 6 3 2 5 6 4 9 6 7 12 16 11 8 5 4 9 6 9 11 9 9 7 7 7 8 10 11 10 9 9 8 7 6 7 7 6 7 7 7 7 6
2 2 4 7 2 7 3 3 4 4 4 2 13 10 9 11 9 5 7 9 7 5 8 9 12 12 11 9 10 11 10 9 7 7 7 7 6 7 7 7 7 7 7 7
4 3 6 7 4 2 3 2 3 2 5 8 11 11 13 10 6 9 8 4 8 8 7 9 10 10 12 13 9 9 9 8 8 8 8 8 7 7 8 8 6 7 7 7
3 3 6 6 2 1 9 2 3 3 6 8 10 12 15 13 10 6 11 8 8 7 7 5 5 7 7 9 10 9 10 10 9 8 8 8 8 9 7 5 9 7 9 9
4 4 5 5 2 5 5 7 4 6 7 6 10 9 6 2 8 6 12 11 10 13 9 9 9 9 9 8 8 8 8 8 8 8 8 8 8 8 6 6 6 6 5 7
2 4 6 7 4 0 2 8 10 3 6 8 9 6 8 8 8 8 8 10 8 7 5 11 9 11 12 11 11 9 8 10 9 9 8 9 9 8 4 4 6 5 7 7
4 4 7 7 2 1 5 6 3 5 3 6 5 6 14 22 21 11 5 4 3 9 14 13 13 13 11 10 11 11 9 8 9 9 9 8 6 5 5 5 5 6 6 5
3 2 7 5 1 5 7 4 4 4 4 7 13 15 12 13 12 5 5 4 4 8 6 6 10 13 11 10 5 7 7 6 5 5 4 5 7 5 5 5 5 6 6 5
9 9 6 5 7 5 4 8 8 4 7 8 13 12 8 4 10 9 8 10 13 1 11 7 7 10 11 6 6 7 7 7 6 5 5 5 6 5 4 5 4 5 4 4
2 7 10 7 6 7 7 9 8 10 11 11 14 11 7 1 8 7 12 14 18 21 2 9 8 9 9 6 6 7 6 6 5 6 5 4 2 2 2 3 2 1 1 2
6 8 8 12 11 7 5 8 9 9 11 14 13 10 7 0 7 3 3 10 17 22 17 2 7 7 6 6 8 8 7 5 5 4 4 4 3 2 3 2 1 2 2 3
8 11 6 9 4 2 6 7 4 6 5 7 7 10 6 5 5 4 3 8 18 23 17 15 3 7 5 5 8 9 7 5 4 4 4 4 3 3 9 6 7 8 5 1
8 3 7 7 6 6 5 5 4 8 6 7 6 7 6 2 4 5 7 12 16 10 17 8 9 5 4 4 6 6 7 6 4 4 4 4 2 3 3 4 7 8 5 5
11 2 11 4 2 3 5 4 4 4 7 1 0 2 3 1 7 8 7 5 9 13 14 7 5 7 6 5 6 6 6 6 4 4 3 2 3 3 2 2 1 1 6 4
12 10 13 4 3 3 4 6 7 4 10 12 6 3 3 2 4 4 8 7 4 11 8 2 6 5 5 2 6 6 4 4 4 4 4 4 2 1 2 2 3 3 1 4
6 7 7 9 8 2 6 7 8 2 4 4 6 6 5 4 1 1 9 11 8 8 5 4 2 4 3 3 5 5 4 8 5 5 3 3 3 3 3 3 3 2 2 2
3 2 3 4 4 2 7 8 6 1 5 6 3 8 8 7 5 6 6 10 6 6 5 5 3 2 1 1 5 3 4 3 6 3 3 3 3 3 2 3 3 3 2 2
4 3 4 1 1 4 3 7 5 5 7 7 11 7 9 9 9 9 9 8 6 4 3 3 3 1 1 4 5 4 4 3 4 4 3 3 2 3 2 1 2 3 2 2
8 7 7 5 3 3 3 2 5 4 7 4 7 10 10 8 9 8 8 7 7 5 3 3 5 4 3 5 5 4 4 5 5 4 4 3 4 3 2 2 2 3 3 2
5 3 1 2 5 4 5 4 4 5 5 3 1 6 8 8 8 11 10 9 7 4 6 6 4 4 5 6 5 4 5 5 6 5 3 3 4 3 3 4 3 3 2 1
6 5 4 5 6 6 4 4 5 6 5 3 6 6 9 8 7 7 8 6 6 7 7 6 4 3 3 3 4 4 5 5 5 4 5 4 4 3 4 4 3 2 2 2
5 6 5 5 5 7 6 5 6 6 5 6 4 6 8 7 6 3 1 7 5 9 4 3 1 4 4 5 5 6 6 7 6 5 5 4 3 4 4 3 5 5 5 5
5 5 5 6 7 7 9 7 6 5 7 7 7 8 8 7 7 7 5 3 5 6 5 2 5 12 13 7 6 6 8 6 6 6 6 6 6 7 7 8 8 8 8 7
5 5 5 4 5 5 8 9 2 5 7 6 6 7 9 5 1 0 5 8 11 8 6 5 6 11 9 6 6 5 7 7 7 7 9 9 8 9 9 8 7 6 6 8
7 5 4 4 6 4 6 6 1 2 4 4 7 7 6 2 4 4 7 6 11 8 6 8 9 11 6 6 6 7 7 8 8 8 9 9 8 8 7 8 6 5 5 6
6 5 5 3 2 3 4 1 1 1 2 4 2 3 4 3 4 5 5 8 6 8 6 4 4 5 6 7 8 8 8 7 11 11 12 9 8 8 6 5 5 4 4 4
5 5 4 4 2 2 2 2 2 2 2 2 3 2 4 5 5 5 6 6 6 5 5 3 5 7 8 9 10 9 8 8 9 8 9 7 6 7 4 4 4 4 4 4
Wind_Direction
233 238 178 206 184 193 190 199 165 277 198 298 314 286 277 211 241 214 227 192 173 169 184 182 186 172 166 161 160 158 159 161 179 188 181 172 172 181 179 172 181 177 176 187
278 214 310 298 222 209 210 158 234 286 282 331 305 300 302 302 216 221 265 176 133 151 148 181 196 186 163 162 163 154 159 173 168 169 166 177 182 177 174 184 180 168 183 183
280 308 330 299 179 97 139 17 257 129 235 299 316 345 315 298 293 274 193 195 130 160 199 186 186 178 180 158 148 156 158 159 172 173 174 181 179 172 186 187 172 184 189 186
240 17 278 262 278 140 111 69 323 272 257 269 271 285 272 262 260 231 218 208 221 190 168 174 165 162 131 139 154 163 166 167 175 181 183 180 178 190 192 178 188 191 200 203
165 203 295 321 133 132 164 245 226 252 274 291 307 306 314 248 293 256 273 203 211 222 156 136 152 143 138 140 141 147 166 172 179 185 184 180 191 196 186 178 192 203 197 210
151 189 224 235 196 89 144 260 215 255 308 322 334 11 276 344 329 307 268 257 210 264 157 144 153 153 150 162 162 169 171 182 178 190 186 191 194 193 187 182 200 187 207 205
175 221 283 240 276 273 168 258 242 215 260 286 285 239 293 306 293 268 217 242 173 165 185 171 163 150 160 161 177 185 174 168 176 188 190 195 178 165 177 194 183 199 209 205
103 193 280 176 181 163 223 273 262 265 232 266 273 284 294 325 309 229 135 120 110 99 96 128 154 151 150 170 153 137 137 154 179 177 165 165 179 189 186 186 193 207 200 211
173 211 228 200 216 240 238 255 270 271 262 254 276 275 285 337 358 18 39 40 0 133 127 111 124 144 132 152 159 152 153 170 178 175 169 170 181 184 183 189 200 231 222 219
72 255 247 261 237 232 234 233 242 252 264 248 256 259 262 61 68 32 59 53 31 12 355 106 103 99 114 128 125 134 152 156 159 168 169 167 165 156 169 208 234 217 213 256
258 288 289 268 254 235 245 270 275 265 258 254 254 238 227 344 80 73 360 50 42 17 331 36 102 102 116 120 111 106 106 108 115 118 125 113 79 77 109 78 77 175 215 201
237 239 208 265 247 179 258 257 286 280 294 301 287 266 207 139 104 80 335 53 51 18 330 317 14 85 73 92 108 115 111 122 135 122 115 117 118 103 54 89 79 97 116 134
244 243 206 239 236 224 246 265 293 300 317 332 306 286 221 212 192 169 59 68 67 340 312 285 302 90 101 102 106 109 120 130 119 117 128 133 117 123 126 62 78 86 84 67
245 268 293 178 191 167 215 250 226 290 314 304 294 356 40 253 96 97 81 66 71 352 277 261 339 6 15 59 69 80 88 96 102 108 122 156 169 181 161 152 155 134 64 88
254 219 244 297 261 233 207 244 268 248 252 244 227 166 121 14 30 97 98 84 149 243 203 104 51 338 329 141 123 127 121 108 105 103 109 118 114 132 114 121 110 105 109 76
258 210 205 239 273 221 258 256 257 19 21 280 185 203 245 130 252 89 118 111 128 188 168 115 146 274 325 72 108 116 113 120 105 111 111 129 149 135 115 103 109 112 74 69
146 288 224 264 294 216 232 262 260 27 189 107 319 190 193 213 173 122 132 107 168 145 165 175 176 258 41 93 139 131 104 112 122 98 120 128 125 122 128 141 142 133 111 58
36 38 63 110 320 350 313 241 228 233 223 196 152 157 149 160 155 139 129 132 125 128 167 184 185 173 70 111 145 125 121 126 98 106 96 86 92 89 109 171 140 139 134 132
31 25 18 45 22 333 350 268 239 224 277 189 155 163 158 152 143 146 132 132 135 146 230 209 190 175 135 105 136 133 137 128 104 87 80 95 75 67 72 54 22 143 151 146
85 65 185 349 4 15 359 357 219 237 218 287 120 130 147 154 154 153 160 151 158 163 171 187 166 145 137 128 113 121 119 103 100 104 116 97 84 79 69 60 51 66 85 215
31 39 28 21 338 328 351 291 279 245 233 205 195 194 175 153 133 143 136 136 173 156 160 149 137 131 123 113 110 119 110 112 102 132 125 109 86 78 69 62 61 40 11 339
336 344 342 336 335 313 323 301 254 247 189 183 182 144 124 130 142 120 199 149 168 149 111 89 107 204 161 131 96 102 105 107 104 97 94 92 97 79 78 65 54 49 33 20
316 315 318 322 312 309 309 308 307 203 187 170 159 161 162 162 151 152 135 173 117 128 106 74 76 121 123 107 104 107 103 97 99 96 82 69 55 55 56 47 40 33 26 30
307 295 287 269 301 342 330 319 317 172 172 169 173 152 135 127 77 206 108 132 127 133 122 109 98 100 92 85 88 86 85 83 87 94 94 90 83 76 63 55 49 37 34 27
305 291 272 293 316 330 311 316 243 168 151 149 147 147 153 214 174 172 131 118 128 117 105 89 95 93 91 101 87 87 88 84 81 75 73 74 74 75 79 78 55 40 38 34
294 294 283 267 260 309 302 354 246 24 104 103 78 158 120 103 96 108 108 124 121 114 114 125 95 84 91 94 93 94 94 106 110 111 112 101 93 89 77 75 76 63 54 49
282 280 271 297 333 321 259 171 166 151 88 150 148 114 129 121 106 113 110 102 106 112 106 99 94 96 105 102 96 93 88 78 70 88 87 91 95 94 97 88 83 77 65 55